Time,TemperatureF,DewpointF,PressureIn,WindDirection,WindDirectionDegrees,WindSpeedMPH,WindSpeedGustMPH,Humidity,HourlyPrecipIn,Conditions,Clouds,dailyrainin,SolarRadiationWatts/m^2,SoftwareType,DateUTC
2014-04-18 00:01:00,52.5,41.5,30.13,SSW,195,0.0,0.0,66,0.00,,---,0.00,0.00,VWS V14.01,2014-04-18 04:01:00,
2014-04-18 00:02:00,52.5,41.5,30.12,SSW,195,0.0,0.0,66,0.00,,---,0.00,0.00,VWS V14.01,2014-04-18 04:02:00,
2014-04-18 00:04:00,52.1,41.5,30.13,SSW,195,0.0,0.0,67,0.00,,---,0.00,0.00,VWS V14.01,2014-04-18 04:04:00,
2014-04-18 00:09:00,51.4,41.2,30.12,SSW,195,0.0,0.0,68,0.00,,---,0.00,0.00,VWS V14.01,2014-04-18 04:09:00,
2014-04-18 00:14:00,51.2,41.0,30.12,SSW,195,0.0,0.0,68,0.00,,---,0.00,0.00,VWS V14.01,2014-04-18 04:14:00,
2014-04-18 00:19:00,51.4,41.2,30.12,SSW,195,0.0,0.0,68,0.00,,---,0.00,0.00,VWS V14.01,2014-04-18 04:19:00,
2014-04-18 00:24:00,51.8,41.2,30.12,SSW,195,0.0,0.0,67,0.00,,---,0.00,0.00,VWS V14.01,2014-04-18 04:24:00,
2014-04-18 00:29:00,51.7,41.5,30.12,SSW,195,0.0,0.0,68,0.00,,---,0.00,0.00,VWS V14.01,2014-04-18 04:29:00,
2014-04-18 00:34:00,51.4,40.8,30.12,SSW,195,0.0,0.0,67,0.00,,---,0.00,0.00,VWS V14.01,2014-04-18 04:34:00,
2014-04-18 00:39:00,51.4,40.4,30.12,SSW,195,0.0,0.0,66,0.00,,---,0.00,0.00,VWS V14.01,2014-04-18 04:39:00,
2014-04-18 00:44:00,51.3,40.3,30.12,SSW,195,0.0,0.0,66,0.00,,---,0.00,0.00,VWS V14.01,2014-04-18 04:44:00,
2014-04-18 00:49:00,50.9,40.7,30.12,SSW,195,0.0,0.0,68,0.00,,---,0.00,0.00,VWS V14.01,2014-04-18 04:49:00,
2014-04-18 00:54:00,50.4,40.6,30.12,SSW,195,0.0,0.0,69,0.00,,---,0.00,0.00,VWS V14.01,2014-04-18 04:54:00,
2014-04-18 00:59:00,50.4,41.0,30.12,SSW,195,0.0,0.0,70,0.00,,---,0.00,0.00,VWS V14.01,2014-04-18 04:59:00,
2014-04-18 01:04:00,50.1,40.7,30.12,SSW,195,0.0,0.0,70,0.00,,---,0.00,0.00,VWS V14.01,2014-04-18 05:04:00,
2014-04-18 01:09:00,49.7,40.7,30.12,SSW,195,0.0,0.0,71,0.00,,---,0.00,0.00,VWS V14.01,2014-04-18 05:09:00,
2014-04-18 01:14:00,49.3,40.7,30.12,SSW,195,0.0,0.0,72,0.00,,---,0.00,0.00,VWS V14.01,2014-04-18 05:14:00,
2014-04-18 01:19:00,49.0,40.7,30.12,SSW,195,0.0,0.0,73,0.00,,---,0.00,0.00,VWS V14.01,2014-04-18 05:19:00,
2014-04-18 01:24:00,49.0,40.7,30.12,SSW,195,0.0,0.0,73,0.00,,---,0.00,0.00,VWS V14.01,2014-04-18 05:24:00,
2014-04-18 01:29:00,49.4,41.5,30.12,SSW,195,0.0,0.0,74,0.00,,---,0.00,0.00,VWS V14.01,2014-04-18 05:29:00,
2014-04-18 01:34:00,49.6,41.7,30.12,SSW,195,0.0,0.0,74,0.00,,---,0.00,0.00,VWS V14.01,2014-04-18 05:34:00,
2014-04-18 01:39:00,49.3,41.0,30.12,SSW,195,0.0,0.0,73,0.00,,---,0.00,0.00,VWS V14.01,2014-04-18 05:39:00,
2014-04-18 01:44:00,48.7,40.8,30.12,SSW,195,0.0,0.0,74,0.00,,---,0.00,0.00,VWS V14.01,2014-04-18 05:44:00,
2014-04-18 01:49:00,48.6,41.0,30.11,SSW,195,0.0,0.0,75,0.00,,---,0.00,0.00,VWS V14.01,2014-04-18 05:49:00,
2014-04-18 01:54:00,48.2,40.7,30.11,SSW,195,0.0,0.0,75,0.00,,---,0.00,0.00,VWS V14.01,2014-04-18 05:54:00,
2014-04-18 01:57:00,47.9,40.7,30.11,North,0,0.0,0.0,76,0.00,,---,0.00,0.00,VWS V14.01,2014-04-18 05:57:00,
2014-04-18 01:58:00,47.8,40.6,30.11,North,0,0.0,0.0,76,0.00,,---,0.00,0.00,VWS V14.01,2014-04-18 05:58:00,
2014-04-18 01:59:00,47.9,40.7,30.11,SSW,195,0.0,0.0,76,0.00,,---,0.00,0.00,VWS V14.01,2014-04-18 05:59:00,
2014-04-18 02:00:00,47.7,40.5,30.10,SSW,195,0.0,0.0,76,0.00,,---,0.00,0.00,VWS V14.01,2014-04-18 06:00:00,
2014-04-18 02:01:00,47.7,40.8,30.10,SSW,195,0.0,0.0,77,0.00,,---,0.00,0.00,VWS V14.01,2014-04-18 06:01:00,
2014-04-18 02:04:00,47.7,40.5,30.10,SSW,195,0.0,0.0,76,0.00,,---,0.00,0.00,VWS V14.01,2014-04-18 06:04:00,
2014-04-18 02:11:00,47.4,40.6,30.10,North,0,0.0,0.0,77,0.00,,---,0.00,0.00,VWS V14.01,2014-04-18 06:11:00,
2014-04-18 02:16:00,47.0,40.5,30.10,SSW,195,0.0,0.0,78,0.00,,---,0.00,0.00,VWS V14.01,2014-04-18 06:16:00,
2014-04-18 02:21:00,46.9,40.7,30.10,SSW,195,0.0,0.0,79,0.00,,---,0.00,0.00,VWS V14.01,2014-04-18 06:21:00,
2014-04-18 02:26:00,46.7,40.5,30.10,SSW,195,0.0,0.0,79,0.00,,---,0.00,0.00,VWS V14.01,2014-04-18 06:26:00,
2014-04-18 02:31:00,46.3,40.2,30.10,SSW,195,0.0,0.0,79,0.00,,---,0.00,0.00,VWS V14.01,2014-04-18 06:31:00,
2014-04-18 02:36:00,46.0,40.2,30.10,SSW,195,0.0,0.0,80,0.00,,---,0.00,0.00,VWS V14.01,2014-04-18 06:36:00,
2014-04-18 02:41:00,46.0,40.5,30.10,SSW,195,0.0,0.0,81,0.00,,---,0.00,0.00,VWS V14.01,2014-04-18 06:41:00,
2014-04-18 02:46:00,46.0,40.5,30.10,SSW,195,0.0,0.0,81,0.00,,---,0.00,0.00,VWS V14.01,2014-04-18 06:46:00,
2014-04-18 02:51:00,45.9,40.4,30.10,SSW,195,0.0,0.0,81,0.00,,---,0.00,0.00,VWS V14.01,2014-04-18 06:51:00,
2014-04-18 02:56:00,45.4,39.9,30.10,SSW,195,0.0,0.0,81,0.00,,---,0.00,0.00,VWS V14.01,2014-04-18 06:56:00,
2014-04-18 03:01:00,45.5,40.3,30.10,SSW,195,0.0,0.0,82,0.00,,---,0.00,0.00,VWS V14.01,2014-04-18 07:01:00,
2014-04-18 03:06:00,45.5,40.3,30.10,SSW,195,0.0,0.0,82,0.00,,---,0.00,0.00,VWS V14.01,2014-04-18 07:06:00,
2014-04-18 03:11:00,45.4,40.5,30.10,SSW,195,0.0,0.0,83,0.00,,---,0.00,0.00,VWS V14.01,2014-04-18 07:11:00,
2014-04-18 03:16:00,45.4,40.9,30.10,SSW,195,0.0,0.0,84,0.00,,---,0.00,0.00,VWS V14.01,2014-04-18 07:16:00,
2014-04-18 03:21:00,45.3,40.8,30.10,SSW,195,0.0,0.0,84,0.00,,---,0.00,0.00,VWS V14.01,2014-04-18 07:21:00,
2014-04-18 03:26:00,45.2,41.0,30.10,SSW,195,0.0,0.0,85,0.00,,---,0.00,0.00,VWS V14.01,2014-04-18 07:26:00,
2014-04-18 03:31:00,45.0,40.5,30.10,SSW,195,0.0,0.0,84,0.00,,---,0.00,0.00,VWS V14.01,2014-04-18 07:31:00,
2014-04-18 03:36:00,44.8,40.6,30.10,SSW,195,0.0,0.0,85,0.00,,---,0.00,0.00,VWS V14.01,2014-04-18 07:36:00,
2014-04-18 03:41:00,44.9,40.7,30.10,SSW,195,0.0,0.0,85,0.00,,---,0.00,0.00,VWS V14.01,2014-04-18 07:41:00,
2014-04-18 03:46:00,45.2,41.0,30.10,SSW,195,0.0,0.0,85,0.00,,---,0.00,0.00,VWS V14.01,2014-04-18 07:46:00,
2014-04-18 03:51:00,45.3,41.1,30.10,SSW,195,0.0,0.0,85,0.00,,---,0.00,0.00,VWS V14.01,2014-04-18 07:51:00,
2014-04-18 03:56:00,45.4,41.2,30.11,SSW,195,0.0,0.0,85,0.00,,---,0.00,0.00,VWS V14.01,2014-04-18 07:56:00,
2014-04-18 04:01:00,45.6,41.4,30.11,SSW,195,0.0,0.0,85,0.00,,---,0.00,0.00,VWS V14.01,2014-04-18 08:01:00,
2014-04-18 04:06:00,45.6,41.0,30.11,SSW,195,0.0,0.0,84,0.00,,---,0.00,0.00,VWS V14.01,2014-04-18 08:06:00,
2014-04-18 04:11:00,45.5,41.0,30.11,SSW,195,0.0,0.0,84,0.00,,---,0.00,0.00,VWS V14.01,2014-04-18 08:11:00,
2014-04-18 04:16:00,45.6,41.0,30.11,SSW,195,0.0,0.0,84,0.00,,---,0.00,0.00,VWS V14.01,2014-04-18 08:16:00,
2014-04-18 04:21:00,45.7,41.2,30.11,SSW,195,0.0,0.0,84,0.00,,---,0.00,0.00,VWS V14.01,2014-04-18 08:21:00,
2014-04-18 04:26:00,45.5,40.7,30.11,SSW,195,0.0,0.0,83,0.00,,---,0.00,0.00,VWS V14.01,2014-04-18 08:26:00,
2014-04-18 04:31:00,45.4,40.5,30.11,SSW,195,0.0,0.0,83,0.00,,---,0.00,0.00,VWS V14.01,2014-04-18 08:31:00,
2014-04-18 04:36:00,45.4,40.5,30.11,SSW,195,0.0,0.0,83,0.00,,---,0.00,0.00,VWS V14.01,2014-04-18 08:36:00,
2014-04-18 04:41:00,45.3,40.5,30.11,SSW,195,0.0,0.0,83,0.00,,---,0.00,0.00,VWS V14.01,2014-04-18 08:41:00,
2014-04-18 04:46:00,45.2,40.3,30.11,SSW,195,0.0,0.0,83,0.00,,---,0.00,0.00,VWS V14.01,2014-04-18 08:46:00,
2014-04-18 04:51:00,45.2,40.3,30.11,SSW,195,0.0,0.0,83,0.00,,---,0.00,0.00,VWS V14.01,2014-04-18 08:51:00,
2014-04-18 04:56:00,45.0,40.2,30.12,SSW,195,0.0,0.0,83,0.00,,---,0.00,0.00,VWS V14.01,2014-04-18 08:56:00,
2014-04-18 05:01:00,44.8,40.0,30.12,SSW,195,0.0,0.0,83,0.00,,---,0.00,0.00,VWS V14.01,2014-04-18 09:01:00,
2014-04-18 05:06:00,44.7,40.2,30.12,SSW,195,0.0,0.0,84,0.00,,---,0.00,0.00,VWS V14.01,2014-04-18 09:06:00,
2014-04-18 05:11:00,44.5,40.0,30.12,SSW,195,0.0,0.0,84,0.00,,---,0.00,0.00,VWS V14.01,2014-04-18 09:11:00,
2014-04-18 05:16:00,44.5,40.0,30.12,SSW,195,0.0,0.0,84,0.00,,---,0.00,0.00,VWS V14.01,2014-04-18 09:16:00,
2014-04-18 05:21:00,44.4,39.9,30.12,SSW,195,0.0,0.0,84,0.00,,---,0.00,0.00,VWS V14.01,2014-04-18 09:21:00,
2014-04-18 05:26:00,44.6,40.1,30.12,SSW,195,0.0,0.0,84,0.00,,---,0.00,0.00,VWS V14.01,2014-04-18 09:26:00,
2014-04-18 05:31:00,44.7,40.2,30.12,SSW,195,0.0,0.0,84,0.00,,---,0.00,0.00,VWS V14.01,2014-04-18 09:31:00,
2014-04-18 05:36:00,44.7,40.2,30.12,SSW,195,0.0,0.0,84,0.00,,---,0.00,0.00,VWS V14.01,2014-04-18 09:36:00,
2014-04-18 05:41:00,44.5,40.0,30.12,SSW,195,0.0,0.0,84,0.00,,---,0.00,0.00,VWS V14.01,2014-04-18 09:41:00,
2014-04-18 05:46:00,44.4,40.2,30.12,SSW,195,0.0,0.0,85,0.00,,---,0.00,0.00,VWS V14.01,2014-04-18 09:46:00,
2014-04-18 05:51:00,44.4,40.2,30.12,SSW,195,0.0,0.0,85,0.00,,---,0.00,0.00,VWS V14.01,2014-04-18 09:51:00,
2014-04-18 05:56:00,44.4,40.2,30.12,SSW,195,0.0,0.0,85,0.00,,---,0.00,0.00,VWS V14.01,2014-04-18 09:56:00,
2014-04-18 06:01:00,44.5,40.3,30.12,SSW,195,0.0,0.0,85,0.00,,---,0.00,0.00,VWS V14.01,2014-04-18 10:01:00,
2014-04-18 06:06:00,44.4,40.2,30.13,SSW,195,0.0,0.0,85,0.00,,---,0.00,0.00,VWS V14.01,2014-04-18 10:06:00,
2014-04-18 06:11:00,43.8,39.6,30.13,SSW,195,0.0,0.0,85,0.00,,---,0.00,0.00,VWS V14.01,2014-04-18 10:11:00,
2014-04-18 06:16:00,43.4,39.5,30.13,SSW,195,0.0,0.0,86,0.00,,---,0.00,0.00,VWS V14.01,2014-04-18 10:16:00,
2014-04-18 06:21:00,43.4,39.8,30.13,SSW,195,0.0,0.0,87,0.00,,---,0.00,0.00,VWS V14.01,2014-04-18 10:21:00,
2014-04-18 06:26:00,43.4,39.8,30.13,SSW,195,0.0,0.0,87,0.00,,---,0.00,0.00,VWS V14.01,2014-04-18 10:26:00,
2014-04-18 06:31:00,43.7,40.1,30.13,SSW,195,0.0,0.0,87,0.00,,---,0.00,0.00,VWS V14.01,2014-04-18 10:31:00,
2014-04-18 06:36:00,43.6,40.0,30.13,SSW,195,0.0,0.0,87,0.00,,---,0.00,0.00,VWS V14.01,2014-04-18 10:36:00,
2014-04-18 06:42:00,43.4,39.8,30.13,SSW,195,0.0,0.0,87,0.00,,---,0.00,0.00,VWS V14.01,2014-04-18 10:42:00,
2014-04-18 06:47:00,43.5,40.2,30.13,SSW,195,0.0,0.0,88,0.00,,---,0.00,0.00,VWS V14.01,2014-04-18 10:47:00,
2014-04-18 06:52:00,43.6,40.3,30.13,SSW,195,0.0,0.0,88,0.00,,---,0.00,0.00,VWS V14.01,2014-04-18 10:52:00,
2014-04-18 06:57:00,43.6,40.3,30.13,SSW,195,0.0,0.0,88,0.00,,---,0.00,0.00,VWS V14.01,2014-04-18 10:57:00,
2014-04-18 07:02:00,43.7,40.4,30.13,SSW,195,0.0,0.0,88,0.00,,---,0.00,0.00,VWS V14.01,2014-04-18 11:02:00,
2014-04-18 07:07:00,43.6,40.3,30.13,SSW,195,0.0,0.0,88,0.00,,---,0.00,9.00,VWS V14.01,2014-04-18 11:07:00,
2014-04-18 07:12:00,43.4,40.1,30.13,SSW,195,0.0,0.0,88,0.00,,---,0.00,12.00,VWS V14.01,2014-04-18 11:12:00,
2014-04-18 07:17:00,43.4,40.1,30.13,SSW,195,0.0,0.0,88,0.00,,---,0.00,19.00,VWS V14.01,2014-04-18 11:17:00,
2014-04-18 07:22:00,43.4,40.4,30.13,SSW,195,0.0,0.0,89,0.00,,---,0.00,28.00,VWS V14.01,2014-04-18 11:22:00,
2014-04-18 07:27:00,43.5,40.5,30.13,SSW,195,0.0,0.0,89,0.00,,---,0.00,33.00,VWS V14.01,2014-04-18 11:27:00,
2014-04-18 07:32:00,43.6,40.6,30.14,SSW,195,0.0,0.0,89,0.00,,---,0.00,40.00,VWS V14.01,2014-04-18 11:32:00,
2014-04-18 07:37:00,43.8,40.8,30.14,SSW,195,0.0,0.0,89,0.00,,---,0.00,49.00,VWS V14.01,2014-04-18 11:37:00,
2014-04-18 07:42:00,44.0,41.0,30.14,SSW,195,0.0,0.0,89,0.00,,---,0.00,54.00,VWS V14.01,2014-04-18 11:42:00,
2014-04-18 07:47:00,44.2,41.2,30.14,SSW,195,0.0,0.0,89,0.00,,---,0.00,67.00,VWS V14.01,2014-04-18 11:47:00,
2014-04-18 07:52:00,44.2,41.2,30.14,SSW,195,0.0,0.0,89,0.00,,---,0.00,79.00,VWS V14.01,2014-04-18 11:52:00,
2014-04-18 07:57:00,44.4,41.4,30.15,SSW,195,0.0,0.0,89,0.00,,---,0.00,83.00,VWS V14.01,2014-04-18 11:57:00,
2014-04-18 08:02:00,44.7,41.7,30.14,SSW,195,0.0,0.0,89,0.00,,---,0.00,91.00,VWS V14.01,2014-04-18 12:02:00,
2014-04-18 08:07:00,45.0,42.0,30.15,SSW,195,0.0,0.0,89,0.00,,---,0.00,116.00,VWS V14.01,2014-04-18 12:07:00,
2014-04-18 08:12:00,45.4,42.1,30.15,SSW,195,0.0,0.0,88,0.00,,---,0.00,127.00,VWS V14.01,2014-04-18 12:12:00,
2014-04-18 08:17:00,45.8,42.5,30.15,SSW,195,0.0,0.0,88,0.00,,---,0.00,155.00,VWS V14.01,2014-04-18 12:17:00,
2014-04-18 08:22:00,46.6,42.9,30.15,SSW,195,0.0,0.0,87,0.00,,---,0.00,169.00,VWS V14.01,2014-04-18 12:22:00,
2014-04-18 08:27:00,47.9,43.6,30.15,SSW,195,0.0,0.0,85,0.00,,---,0.00,237.00,VWS V14.01,2014-04-18 12:27:00,
2014-04-18 08:32:00,48.8,43.9,30.14,SSW,195,0.0,0.0,83,0.00,,---,0.00,251.00,VWS V14.01,2014-04-18 12:32:00,
2014-04-18 08:37:00,49.6,44.3,30.14,SSW,195,0.0,0.0,82,0.00,,---,0.00,279.00,VWS V14.01,2014-04-18 12:37:00,
2014-04-18 08:42:00,50.2,44.3,30.14,SSW,195,0.0,0.0,80,0.00,,---,0.00,299.00,VWS V14.01,2014-04-18 12:42:00,
2014-04-18 08:47:00,50.8,44.5,30.14,SSW,195,0.0,0.0,79,0.00,,---,0.00,295.00,VWS V14.01,2014-04-18 12:47:00,
2014-04-18 08:52:00,51.3,44.7,30.14,SSW,195,0.0,0.0,78,0.00,,---,0.00,316.00,VWS V14.01,2014-04-18 12:52:00,
2014-04-18 08:57:00,52.1,45.1,30.14,SSW,195,0.0,0.0,77,0.00,,---,0.00,403.00,VWS V14.01,2014-04-18 12:57:00,
2014-04-18 09:02:00,53.1,45.4,30.14,SSW,195,0.0,0.0,75,0.00,,---,0.00,388.00,VWS V14.01,2014-04-18 13:02:00,
2014-04-18 09:07:00,53.5,45.8,30.14,SSW,195,0.0,0.0,75,0.00,,---,0.00,376.00,VWS V14.01,2014-04-18 13:07:00,
2014-04-18 09:12:00,54.0,45.9,30.14,SSW,195,0.0,0.0,74,0.00,,---,0.00,357.00,VWS V14.01,2014-04-18 13:12:00,
2014-04-18 09:17:00,55.0,46.5,30.14,SSW,195,0.0,0.0,73,0.00,,---,0.00,355.00,VWS V14.01,2014-04-18 13:17:00,
2014-04-18 09:22:00,55.2,46.0,30.15,SSW,195,0.0,0.0,71,0.00,,---,0.00,415.00,VWS V14.01,2014-04-18 13:22:00,
2014-04-18 09:27:00,56.0,46.4,30.15,SSW,195,0.0,0.0,70,0.00,,---,0.00,396.00,VWS V14.01,2014-04-18 13:27:00,
2014-04-18 09:32:00,56.5,45.7,30.15,SSW,195,0.0,0.0,67,0.00,,---,0.00,408.00,VWS V14.01,2014-04-18 13:32:00,
2014-04-18 09:37:00,56.9,45.7,30.15,SSW,195,0.0,0.0,66,0.00,,---,0.00,429.00,VWS V14.01,2014-04-18 13:37:00,
2014-04-18 09:42:00,57.7,46.0,30.15,SSW,195,0.0,0.0,65,0.00,,---,0.00,468.00,VWS V14.01,2014-04-18 13:42:00,
2014-04-18 09:47:00,58.1,46.0,30.15,SSW,195,0.0,0.0,64,0.00,,---,0.00,441.00,VWS V14.01,2014-04-18 13:47:00,
2014-04-18 09:52:00,58.7,45.7,30.15,SSW,195,0.0,0.0,62,0.00,,---,0.00,411.00,VWS V14.01,2014-04-18 13:52:00,
2014-04-18 09:57:00,59.0,46.0,30.15,SSW,195,0.0,0.0,62,0.00,,---,0.00,352.00,VWS V14.01,2014-04-18 13:57:00,
2014-04-18 10:02:00,59.5,46.9,30.15,SSW,195,0.0,0.0,63,0.00,,---,0.00,499.00,VWS V14.01,2014-04-18 14:02:00,
2014-04-18 10:07:00,60.2,47.2,30.15,SSW,195,0.0,0.0,62,0.00,,---,0.00,526.00,VWS V14.01,2014-04-18 14:07:00,
2014-04-18 10:12:00,60.8,47.3,30.15,SSW,195,0.0,0.0,61,0.00,,---,0.00,413.00,VWS V14.01,2014-04-18 14:12:00,
2014-04-18 10:17:00,61.3,47.8,30.15,SSW,195,0.0,0.0,61,0.00,,---,0.00,559.00,VWS V14.01,2014-04-18 14:17:00,
2014-04-18 10:22:00,61.8,46.9,30.15,SSW,195,0.0,0.0,58,0.00,,---,0.00,480.00,VWS V14.01,2014-04-18 14:22:00,
2014-04-18 10:27:00,62.0,46.6,30.15,SSW,195,0.0,0.0,57,0.00,,---,0.00,487.00,VWS V14.01,2014-04-18 14:27:00,
2014-04-18 10:32:00,62.1,46.7,30.14,SSW,195,0.0,0.0,57,0.00,,---,0.00,457.00,VWS V14.01,2014-04-18 14:32:00,
2014-04-18 10:37:00,63.0,47.5,30.15,SSW,195,0.0,0.0,57,0.00,,---,0.00,561.00,VWS V14.01,2014-04-18 14:37:00,
2014-04-18 10:43:00,62.9,47.5,30.15,SSW,195,0.0,0.0,57,0.00,,---,0.00,635.00,VWS V14.01,2014-04-18 14:43:00,
2014-04-18 10:48:00,64.0,48.0,30.15,SSW,195,0.0,0.0,56,0.00,,---,0.00,659.00,VWS V14.01,2014-04-18 14:48:00,
2014-04-18 10:53:00,64.3,47.8,30.14,SSW,195,0.0,0.0,55,0.00,,---,0.00,596.00,VWS V14.01,2014-04-18 14:53:00,
2014-04-18 10:58:00,65.2,48.6,30.14,SSW,195,0.0,0.0,55,0.00,,---,0.00,534.00,VWS V14.01,2014-04-18 14:58:00,
2014-04-18 11:03:00,64.9,47.9,30.15,SSW,195,0.0,0.0,54,0.00,,---,0.00,661.00,VWS V14.01,2014-04-18 15:03:00,
2014-04-18 11:08:00,64.8,47.3,30.14,SSW,195,0.0,0.0,53,0.00,,---,0.00,700.00,VWS V14.01,2014-04-18 15:08:00,
2014-04-18 11:13:00,64.8,47.8,30.14,SSW,195,0.0,0.0,54,0.00,,---,0.00,729.00,VWS V14.01,2014-04-18 15:13:00,
2014-04-18 11:18:00,65.3,48.2,30.14,SSW,195,0.0,0.0,54,0.00,,---,0.00,577.00,VWS V14.01,2014-04-18 15:18:00,
2014-04-18 11:23:00,65.8,48.7,30.14,SSW,195,0.0,0.0,54,0.00,,---,0.00,638.00,VWS V14.01,2014-04-18 15:23:00,
2014-04-18 11:28:00,66.5,47.8,30.14,SSW,195,0.0,0.0,51,0.00,,---,0.00,642.00,VWS V14.01,2014-04-18 15:28:00,
2014-04-18 11:33:00,66.3,47.1,30.14,SSW,195,0.0,0.0,50,0.00,,---,0.00,626.00,VWS V14.01,2014-04-18 15:33:00,
2014-04-18 11:38:00,66.3,47.7,30.14,SSW,195,0.0,0.0,51,0.00,,---,0.00,682.00,VWS V14.01,2014-04-18 15:38:00,
2014-04-18 11:43:00,67.0,47.8,30.14,SSW,195,0.0,0.0,50,0.00,,---,0.00,682.00,VWS V14.01,2014-04-18 15:43:00,
2014-04-18 11:48:00,67.4,47.0,30.14,SSW,195,0.0,0.0,48,0.00,,---,0.00,728.00,VWS V14.01,2014-04-18 15:48:00,
2014-04-18 11:53:00,67.7,47.3,30.14,SSW,195,0.0,1.0,48,0.00,,---,0.00,717.00,VWS V14.01,2014-04-18 15:53:00,
2014-04-18 11:58:00,67.1,46.8,30.14,SSW,195,0.0,1.0,48,0.00,,---,0.00,703.00,VWS V14.01,2014-04-18 15:58:00,
2014-04-18 12:03:00,66.9,47.1,30.14,SSW,195,4.0,4.0,49,0.00,,---,0.00,737.00,VWS V14.01,2014-04-18 16:03:00,
2014-04-18 12:08:00,66.8,45.9,30.14,SSW,195,0.0,0.0,47,0.00,,---,0.00,640.00,VWS V14.01,2014-04-18 16:08:00,
2014-04-18 12:13:00,67.7,47.3,30.14,SSW,195,0.0,0.0,48,0.00,,---,0.00,756.00,VWS V14.01,2014-04-18 16:13:00,
2014-04-18 12:18:00,68.6,47.0,30.13,SSW,195,6.0,6.0,46,0.00,,---,0.00,629.00,VWS V14.01,2014-04-18 16:18:00,
2014-04-18 12:23:00,68.4,46.2,30.13,SSW,195,0.0,0.0,45,0.00,,---,0.00,788.00,VWS V14.01,2014-04-18 16:23:00,
2014-04-18 12:28:00,68.3,45.6,30.13,SSW,195,0.0,3.0,44,0.00,,---,0.00,795.00,VWS V14.01,2014-04-18 16:28:00,
2014-04-18 12:33:00,68.1,46.0,30.13,SSW,195,0.0,0.0,45,0.00,,---,0.00,503.00,VWS V14.01,2014-04-18 16:33:00,
2014-04-18 12:38:00,67.6,46.1,30.13,SSW,201,3.0,5.0,46,0.00,,---,0.00,552.00,VWS V14.01,2014-04-18 16:38:00,
2014-04-18 12:43:00,67.7,45.6,30.13,SSW,202,0.0,3.0,45,0.00,,---,0.00,768.00,VWS V14.01,2014-04-18 16:43:00,
2014-04-18 12:48:00,68.4,46.2,30.13,SSW,204,4.0,6.0,45,0.00,,---,0.00,754.00,VWS V14.01,2014-04-18 16:48:00,
2014-04-18 12:53:00,68.9,46.7,30.13,SW,217,3.0,6.0,45,0.00,,---,0.00,738.00,VWS V14.01,2014-04-18 16:53:00,
2014-04-18 12:58:00,68.9,46.7,30.13,SW,217,3.0,4.0,45,0.00,,---,0.00,844.00,VWS V14.01,2014-04-18 16:58:00,
2014-04-18 13:03:00,69.0,46.2,30.13,SW,219,0.0,4.0,44,0.00,,---,0.00,837.00,VWS V14.01,2014-04-18 17:03:00,
2014-04-18 13:08:00,69.7,46.8,30.13,SW,225,2.0,5.0,44,0.00,,---,0.00,765.00,VWS V14.01,2014-04-18 17:08:00,
2014-04-18 13:13:00,69.5,46.0,30.13,WSW,254,2.0,6.0,43,0.00,,---,0.00,759.00,VWS V14.01,2014-04-18 17:13:00,
2014-04-18 13:18:00,69.0,46.2,30.12,NW,313,0.0,5.0,44,0.00,,---,0.00,738.00,VWS V14.01,2014-04-18 17:18:00,
2014-04-18 13:23:00,69.7,46.8,30.12,WNW,292,0.0,3.0,44,0.00,,---,0.00,812.00,VWS V14.01,2014-04-18 17:23:00,
2014-04-18 13:28:00,69.5,45.4,30.13,West,274,4.0,12.0,42,0.00,,---,0.00,814.00,VWS V14.01,2014-04-18 17:28:00,
2014-04-18 13:33:00,69.5,45.4,30.12,SW,228,4.0,5.0,42,0.00,,---,0.00,765.00,VWS V14.01,2014-04-18 17:33:00,
2014-04-18 13:38:00,69.4,44.1,30.12,SW,229,4.0,4.0,40,0.00,,---,0.00,793.00,VWS V14.01,2014-04-18 17:38:00,
2014-04-18 13:43:00,69.7,45.6,30.12,SW,231,0.0,0.0,42,0.00,,---,0.00,809.00,VWS V14.01,2014-04-18 17:43:00,
2014-04-18 13:48:00,69.9,45.8,30.12,NNW,346,0.0,2.0,42,0.00,,---,0.00,724.00,VWS V14.01,2014-04-18 17:48:00,
2014-04-18 13:53:00,69.5,45.4,30.12,NNW,345,5.0,5.0,42,0.00,,---,0.00,847.00,VWS V14.01,2014-04-18 17:53:00,
2014-04-18 13:58:00,69.5,44.8,30.12,WNW,301,0.0,0.0,41,0.00,,---,0.00,766.00,VWS V14.01,2014-04-18 17:58:00,
2014-04-18 14:03:00,69.6,44.2,30.12,NW,324,4.0,5.0,40,0.00,,---,0.00,840.00,VWS V14.01,2014-04-18 18:03:00,
2014-04-18 14:08:00,70.0,45.9,30.12,NNW,329,0.0,4.0,42,0.00,,---,0.00,928.00,VWS V14.01,2014-04-18 18:08:00,
2014-04-18 14:13:00,71.0,45.5,30.12,NNW,329,0.0,0.0,40,0.00,,---,0.00,953.00,VWS V14.01,2014-04-18 18:13:00,
2014-04-18 14:18:00,71.6,46.7,30.12,NW,323,1.0,4.0,41,0.00,,---,0.00,914.00,VWS V14.01,2014-04-18 18:18:00,
2014-04-18 14:23:00,70.6,45.8,30.12,NNW,331,3.0,6.0,41,0.00,,---,0.00,905.00,VWS V14.01,2014-04-18 18:23:00,
2014-04-18 14:28:00,70.8,45.3,30.12,NNW,331,0.0,0.0,40,0.00,,---,0.00,823.00,VWS V14.01,2014-04-18 18:28:00,
2014-04-18 14:33:00,70.7,45.2,30.11,WNW,291,0.0,4.0,40,0.00,,---,0.00,814.00,VWS V14.01,2014-04-18 18:33:00,
2014-04-18 14:38:00,70.9,45.4,30.11,West,259,3.0,3.0,40,0.00,,---,0.00,946.00,VWS V14.01,2014-04-18 18:38:00,
2014-04-18 14:43:00,71.6,45.4,30.12,WSW,250,4.0,4.0,39,0.00,,---,0.00,893.00,VWS V14.01,2014-04-18 18:43:00,
2014-04-18 14:48:00,71.6,45.4,30.11,WSW,251,0.0,0.0,39,0.00,,---,0.00,881.00,VWS V14.01,2014-04-18 18:48:00,
2014-04-18 14:53:00,71.8,45.5,30.11,WSW,250,0.0,0.0,39,0.00,,---,0.00,886.00,VWS V14.01,2014-04-18 18:53:00,
2014-04-18 14:58:00,71.9,45.6,30.11,WSW,246,4.0,4.0,39,0.00,,---,0.00,856.00,VWS V14.01,2014-04-18 18:58:00,
2014-04-18 15:04:00,71.3,46.4,30.11,West,268,0.0,0.0,41,0.00,,---,0.00,830.00,VWS V14.01,2014-04-18 19:04:00,
2014-04-18 15:09:00,71.2,45.7,30.11,NNW,337,0.0,5.0,40,0.00,,---,0.00,824.00,VWS V14.01,2014-04-18 19:09:00,
2014-04-18 15:14:00,71.2,46.3,30.11,NNW,342,6.0,6.0,41,0.00,,---,0.00,812.00,VWS V14.01,2014-04-18 19:14:00,
2014-04-18 15:19:00,70.9,46.7,30.11,NE,51,0.0,0.0,42,0.00,,---,0.00,814.00,VWS V14.01,2014-04-18 19:19:00,
2014-04-18 15:24:00,70.3,46.2,30.11,NE,53,0.0,1.0,42,0.00,,---,0.00,809.00,VWS V14.01,2014-04-18 19:24:00,
2014-04-18 15:29:00,69.6,44.9,30.10,ENE,60,0.0,0.0,41,0.00,,---,0.00,278.00,VWS V14.01,2014-04-18 19:29:00,
2014-04-18 15:34:00,69.2,45.8,30.10,ENE,60,0.0,0.0,43,0.00,,---,0.00,311.00,VWS V14.01,2014-04-18 19:34:00,
2014-04-18 15:39:00,70.0,45.9,30.10,NE,56,2.0,4.0,42,0.00,,---,0.00,722.00,VWS V14.01,2014-04-18 19:39:00,
2014-04-18 15:44:00,71.3,47.0,30.10,NE,46,0.0,0.0,42,0.00,,---,0.00,773.00,VWS V14.01,2014-04-18 19:44:00,
2014-04-18 15:49:00,72.0,47.0,30.10,NE,46,4.0,5.0,41,0.00,,---,0.00,780.00,VWS V14.01,2014-04-18 19:49:00,
2014-04-18 15:54:00,71.5,46.6,30.09,NE,45,1.0,1.0,41,0.00,,---,0.00,775.00,VWS V14.01,2014-04-18 19:54:00,
2014-04-18 15:59:00,71.6,47.3,30.09,NE,46,0.0,2.0,42,0.00,,---,0.00,555.00,VWS V14.01,2014-04-18 19:59:00,
2014-04-18 16:04:00,71.9,46.3,30.09,NE,45,4.0,4.0,40,0.00,,---,0.00,749.00,VWS V14.01,2014-04-18 20:04:00,
2014-04-18 16:09:00,72.0,47.0,30.09,NE,42,4.0,6.0,41,0.00,,---,0.00,707.00,VWS V14.01,2014-04-18 20:09:00,
2014-04-18 16:14:00,71.2,47.0,30.09,East,82,0.0,0.0,42,0.00,,---,0.00,656.00,VWS V14.01,2014-04-18 20:14:00,
2014-04-18 16:19:00,71.1,46.9,30.09,East,82,0.0,3.0,42,0.00,,---,0.00,309.00,VWS V14.01,2014-04-18 20:19:00,
2014-04-18 16:24:00,70.4,46.2,30.09,ESE,122,4.0,5.0,42,0.00,,---,0.00,301.00,VWS V14.01,2014-04-18 20:24:00,
2014-04-18 16:29:00,70.2,46.1,30.09,WSW,245,0.0,1.0,42,0.00,,---,0.00,325.00,VWS V14.01,2014-04-18 20:29:00,
2014-04-18 16:34:00,70.3,46.2,30.08,WSW,245,1.0,3.0,42,0.00,,---,0.00,271.00,VWS V14.01,2014-04-18 20:34:00,
2014-04-18 16:39:00,70.2,46.7,30.08,WSW,246,0.0,0.0,43,0.00,,---,0.00,285.00,VWS V14.01,2014-04-18 20:39:00,
2014-04-18 16:44:00,70.7,45.2,30.08,WSW,257,3.0,4.0,40,0.00,,---,0.00,606.00,VWS V14.01,2014-04-18 20:44:00,
2014-04-18 16:49:00,70.6,45.1,30.08,NNW,342,0.0,3.0,40,0.00,,---,0.00,471.00,VWS V14.01,2014-04-18 20:49:00,
2014-04-18 16:54:00,70.4,45.6,30.07,NNW,342,0.0,0.0,41,0.00,,---,0.00,309.00,VWS V14.01,2014-04-18 20:54:00,
2014-04-18 16:59:00,70.3,45.5,30.07,NNW,342,0.0,2.0,41,0.00,,---,0.00,570.00,VWS V14.01,2014-04-18 20:59:00,
2014-04-18 17:04:00,70.6,45.8,30.07,NNW,336,1.0,1.0,41,0.00,,---,0.00,301.00,VWS V14.01,2014-04-18 21:04:00,
2014-04-18 17:09:00,70.5,45.0,30.07,West,271,5.0,6.0,40,0.00,,---,0.00,311.00,VWS V14.01,2014-04-18 21:09:00,
2014-04-18 17:14:00,70.5,45.0,30.07,West,271,0.0,0.0,40,0.00,,---,0.00,404.00,VWS V14.01,2014-04-18 21:14:00,
2014-04-18 17:19:00,71.0,45.5,30.07,West,269,0.0,0.0,40,0.00,,---,0.00,373.00,VWS V14.01,2014-04-18 21:19:00,
2014-04-18 17:24:00,70.9,46.0,30.07,West,268,0.0,2.0,41,0.00,,---,0.00,371.00,VWS V14.01,2014-04-18 21:24:00,
2014-04-18 17:29:00,70.6,45.1,30.06,West,269,0.0,0.0,40,0.00,,---,0.00,255.00,VWS V14.01,2014-04-18 21:29:00,
2014-04-18 17:34:00,70.2,45.4,30.06,West,268,0.0,1.0,41,0.00,,---,0.00,248.00,VWS V14.01,2014-04-18 21:34:00,
2014-04-18 17:39:00,70.2,45.4,30.06,West,268,0.0,0.0,41,0.00,,---,0.00,225.00,VWS V14.01,2014-04-18 21:39:00,
2014-04-18 17:44:00,70.4,46.9,30.06,West,269,0.0,0.0,43,0.00,,---,0.00,216.00,VWS V14.01,2014-04-18 21:44:00,
2014-04-18 17:49:00,70.3,46.2,30.06,West,268,0.0,3.0,42,0.00,,---,0.00,209.00,VWS V14.01,2014-04-18 21:49:00,
2014-04-18 17:54:00,70.1,46.0,30.06,West,271,0.0,0.0,42,0.00,,---,0.00,197.00,VWS V14.01,2014-04-18 21:54:00,
2014-04-18 17:59:00,70.1,45.3,30.06,West,271,0.0,0.0,41,0.00,,---,0.00,169.00,VWS V14.01,2014-04-18 21:59:00,
2014-04-18 18:04:00,70.1,45.3,30.06,West,271,0.0,0.0,41,0.00,,---,0.00,197.00,VWS V14.01,2014-04-18 22:04:00,
2014-04-18 18:09:00,70.2,46.1,30.06,West,275,5.0,7.0,42,0.00,,---,0.00,380.00,VWS V14.01,2014-04-18 22:09:00,
2014-04-18 18:14:00,70.4,45.6,30.06,West,273,0.0,0.0,41,0.00,,---,0.00,174.00,VWS V14.01,2014-04-18 22:14:00,
2014-04-18 18:19:00,70.2,45.4,30.06,West,273,0.0,0.0,41,0.00,,---,0.00,181.00,VWS V14.01,2014-04-18 22:19:00,
2014-04-18 18:24:00,70.1,46.0,30.06,West,273,0.0,1.0,42,0.00,,---,0.00,158.00,VWS V14.01,2014-04-18 22:24:00,
2014-04-18 18:29:00,70.1,46.0,30.06,West,273,1.0,1.0,42,0.00,,---,0.00,234.00,VWS V14.01,2014-04-18 22:29:00,
2014-04-18 18:34:00,70.2,46.1,30.06,West,273,0.0,0.0,42,0.00,,---,0.00,193.00,VWS V14.01,2014-04-18 22:34:00,
2014-04-18 18:39:00,70.4,45.6,30.06,West,273,0.0,0.0,41,0.00,,---,0.00,239.00,VWS V14.01,2014-04-18 22:39:00,
2014-04-18 18:44:00,70.6,46.4,30.05,West,273,1.0,1.0,42,0.00,,---,0.00,336.00,VWS V14.01,2014-04-18 22:44:00,
2014-04-18 18:49:00,70.9,46.0,30.05,West,273,0.0,2.0,41,0.00,,---,0.00,287.00,VWS V14.01,2014-04-18 22:49:00,
2014-04-18 18:54:00,70.4,45.6,30.05,West,273,0.0,0.0,41,0.00,,---,0.00,181.00,VWS V14.01,2014-04-18 22:54:00,
2014-04-18 18:59:00,70.0,45.9,30.05,West,273,0.0,1.0,42,0.00,,---,0.00,239.00,VWS V14.01,2014-04-18 22:59:00,
2014-04-18 19:04:00,70.0,45.9,30.05,West,273,0.0,0.0,42,0.00,,---,0.00,227.00,VWS V14.01,2014-04-18 23:04:00,
2014-04-18 19:09:00,70.2,46.7,30.05,West,273,0.0,0.0,43,0.00,,---,0.00,213.00,VWS V14.01,2014-04-18 23:09:00,
2014-04-18 19:14:00,70.3,46.8,30.05,West,273,1.0,1.0,43,0.00,,---,0.00,193.00,VWS V14.01,2014-04-18 23:14:00,
2014-04-18 19:19:00,70.1,46.0,30.05,West,274,0.0,0.0,42,0.00,,---,0.00,162.00,VWS V14.01,2014-04-18 23:19:00,
2014-04-18 19:24:00,69.8,45.7,30.04,West,274,0.0,0.0,42,0.00,,---,0.00,134.00,VWS V14.01,2014-04-18 23:24:00,
2014-04-18 19:29:00,69.7,45.6,30.05,West,276,0.0,3.0,42,0.00,,---,0.00,121.00,VWS V14.01,2014-04-18 23:29:00,
2014-04-18 19:34:00,69.5,46.0,30.04,WNW,284,1.0,3.0,43,0.00,,---,0.00,100.00,VWS V14.01,2014-04-18 23:34:00,
2014-04-18 19:39:00,69.3,45.9,30.04,WNW,284,0.0,0.0,43,0.00,,---,0.00,83.00,VWS V14.01,2014-04-18 23:39:00,
2014-04-18 19:44:00,69.1,45.7,30.04,WNW,284,0.0,0.0,43,0.00,,---,0.00,65.00,VWS V14.01,2014-04-18 23:44:00,
2014-04-18 19:49:00,68.8,45.4,30.04,WNW,284,0.0,0.0,43,0.00,,---,0.00,53.00,VWS V14.01,2014-04-18 23:49:00,
2014-04-18 19:54:00,68.6,45.2,30.04,WNW,284,0.0,0.0,43,0.00,,---,0.00,40.00,VWS V14.01,2014-04-18 23:54:00,
2014-04-18 19:59:00,68.3,45.6,30.04,WNW,284,0.0,0.0,44,0.00,,---,0.00,33.00,VWS V14.01,2014-04-18 23:59:00,
2014-04-18 20:04:00,67.9,45.8,30.05,WNW,284,0.0,0.0,45,0.00,,---,0.00,23.00,VWS V14.01,2014-04-19 00:04:00,
2014-04-18 20:09:00,67.7,45.6,30.05,WNW,284,0.0,0.0,45,0.00,,---,0.00,16.00,VWS V14.01,2014-04-19 00:09:00,
2014-04-18 20:14:00,67.5,45.4,30.05,WNW,284,0.0,0.0,45,0.00,,---,0.00,11.00,VWS V14.01,2014-04-19 00:14:00,
2014-04-18 20:19:00,67.2,45.2,30.05,WNW,284,0.0,0.0,45,0.00,,---,0.00,7.00,VWS V14.01,2014-04-19 00:19:00,